Regional Weather Roundup
Issued by NWS

Home | Current Version | Previous Version | Graphics & Text | Print | Product List | Glossary On
Versions: 1 2 3 4 5 6 7 8 9 10 11 12 13 14 15 16 17 18 19 20 21 22 23 24 25 26 27 28 29 30 31 32 33 34 35 36 37 38 39 40 41 42 43 44 45 46 47 48 49 50
000
ASUS43 KLSX 310959
RWRMO

WEATHER SUMMARY FOR MISSOURI
NATIONAL WEATHER SERVICE SPRINGFIELD MO
500 AM CDT FRI JUL 31 2015

NOTE: "FAIR" INDICATES FEW OR NO CLOUDS BELOW 12,000 FEET WITH NO
       SIGNIFICANT WEATHER AND/OR OBSTRUCTIONS TO VISIBILITY.
       CURRENT SKY AND/OR WEATHER CONDITIONS ARE NOT AVAILABLE FOR
       CHILLICOTHE AND FARMINGTON.

MOZ001>031-035>038-043-044-053-054-311100-
...NORTHERN AND WESTERN MISSOURI...

CITY           SKY/WX    TMP DP  RH WIND       PRES   REMARKS
KANSAS CTY INT PTCLDY    66  62  87 SW5       30.16R
KANSAS C DTWN  CLEAR     69  65  86 CALM      30.15S
LEE`S SUMMIT   CLEAR     64  60  87 SW3       30.17S
ST JOSEPH      CLEAR     65  64  97 SW3       30.15S FOG
CHILLICOTHE      N/A     67  65  93 CALM      30.15F
KIRKSVILLE     PTCLDY    67  62  84 W3        30.15S

$$
MOZ066>068-077>081-088>096-101>105-311100-
...SOUTHWEST MISSOURI...

CITY           SKY/WX    TMP DP  RH WIND       PRES   REMARKS
SPRINGFIELD    PTCLDY    71  63  75 CALM      30.17R
JOPLIN         MOCLDY    70  65  84 CALM      30.16R

$$
MOZ032>034-039>042-045>050-055>058-069>072-311100-
...CENTRAL MISSOURI...

CITY           SKY/WX    TMP DP  RH WIND       PRES   REMARKS
COLUMBIA       CLEAR     68  65  90 W6        30.15S
JEFFERSON CITY CLOUDY    65  65 100 CALM      30.14S FOG
ROLLA          CLEAR     64  61  90 CALM      30.14S
SEDALIA        CLEAR     67  63  87 SW5       30.16S
OSAGE BEACH    CLOUDY    63  59  88 CALM      30.16S VSB 1/2

$$
MOZ051-052-059>065-311100-
...EAST CENTRAL MISSOURI...

CITY           SKY/WX    TMP DP  RH WIND       PRES   REMARKS
ST LOUIS INTL  PTCLDY    72  65  78 W5        30.12S
SPIRIT OF STL  CLEAR     66  66 100 CALM      30.11S
ST CHARLES     CLEAR     68  65  90 SW6       30.11R

$$
MOZ072>076-082>087-097>100-106>115-311100-
...SOUTH CENTRAL AND SOUTHEAST MISSOURI...

CITY           SKY/WX    TMP DP  RH WIND       PRES   REMARKS
CAPE GIRARDEAU CLEAR     65  64  97 SW5       30.10R
FARMINGTON     CLEAR     64  61  88 CALM      30.18R
POPLAR BLUFF   CLEAR     67  63  87 NW5       30.10R
WEST PLAINS    CLEAR     64  59  83 CALM      30.17S

$$



USA.gov is the U.S. government's official web portal to all federal, state and local government web resources and services.